Wind_Speed
2 2 2 3 3 3 2 2 3 3 4 5 4 3 3 3 2 2 1 1 1 0 0 1 1 1 2 2 3 3 3 3 4 4 4 4 4 4 4 4 4 4 5
1 1 2 3 3 3 3 3 3 3 4 4 3 3 3 2 2 1 1 0 0 1 1 1 2 2 3 3 3 3 4 4 4 5 5 5 5 5 5 5 6 6 6
1 2 2 3 3 3 3 3 3 3 4 4 3 3 2 2 2 2 1 1 1 1 2 2 2 3 3 4 4 4 5 5 5 6 6 6 6 7 7 7 7 8 8
2 2 3 3 3 4 4 4 4 3 3 3 3 3 3 3 3 2 2 2 3 3 3 3 3 4 4 5 5 6 6 6 6 6 6 6 7 7 8 8 8 9 9
2 3 3 4 4 4 4 4 4 4 4 4 3 3 4 4 4 4 4 4 4 4 5 5 5 6 6 6 6 7 7 7 7 7 7 7 8 8 8 9 9 10 11
2 3 4 5 5 5 6 6 5 5 5 5 4 5 5 5 5 6 6 6 6 6 6 6 7 7 7 7 7 7 8 8 8 8 8 9 9 10 10 10 11 12 12
2 3 5 5 5 6 7 8 7 6 6 6 6 6 7 7 7 7 7 8 8 8 8 8 8 8 8 8 8 8 9 9 10 11 11 11 11 11 11 12 12 13 13
3 4 5 6 6 7 8 8 9 8 8 8 8 8 8 9 9 9 10 9 9 9 9 10 10 10 9 10 10 10 11 11 11 12 12 12 12 13 13 14 14 14 15
4 5 5 6 6 7 9 9 10 10 10 9 9 9 10 10 10 10 10 10 10 11 12 12 12 12 12 12 13 13 13 13 14 14 14 14 14 14 15 15 15 16 16
5 5 5 6 7 7 8 10 10 10 11 11 11 11 12 12 11 11 11 11 11 12 12 13 13 14 14 15 15 15 15 15 15 16 16 16 16 16 16 17 17 17 17
5 6 6 6 7 8 9 10 11 11 12 12 12 12 13 13 12 13 13 13 13 14 14 15 15 15 16 16 16 17 17 17 18 18 18 18 18 18 18 18 18 19 19
5 6 7 7 7 8 9 10 11 12 13 13 13 13 13 13 13 14 14 15 15 16 16 16 17 18 18 18 18 19 19 19 20 20 19 19 20 20 20 20 20 20 21
5 6 6 6 6 8 9 10 10 12 13 13 13 14 13 13 13 14 15 16 17 18 18 18 19 19 20 20 20 19 20 20 21 21 22 22 22 22 22 22 23 23 23
5 5 6 6 7 7 8 9 10 11 13 13 14 14 14 15 15 15 15 17 17 19 19 20 20 20 20 21 21 21 22 22 23 23 23 24 23 23 24 24 25 26 26
6 6 7 7 8 8 9 10 10 12 12 13 15 15 16 16 17 17 18 18 18 19 20 21 22 22 22 22 22 22 23 23 23 23 24 24 24 25 25 26 26 27 28
7 8 8 8 9 10 10 10 11 12 13 14 15 16 17 18 18 19 20 20 20 21 21 23 24 24 24 24 24 25 25 24 24 24 25 25 25 26 26 27 28 29 29
7 8 9 9 10 10 11 12 12 12 13 14 15 16 17 18 19 20 21 21 22 23 23 23 24 24 24 25 25 26 25 24 24 25 25 26 27 27 28 29 30 30 31
9 9 10 10 11 11 12 12 12 13 14 15 16 17 18 19 20 21 22 23 23 23 24 24 24 25 24 25 25 25 24 25 25 25 26 27 28 28 29 30 31 32 33
9 10 11 11 11 12 12 12 13 14 15 16 17 18 18 19 20 21 22 22 23 24 24 24 24 25 25 25 25 24 25 25 26 26 27 27 28 29 30 31 32 33 34
10 11 11 12 12 12 13 13 14 15 15 16 17 18 19 19 20 21 21 21 22 22 23 24 25 25 26 25 25 25 26 26 26 27 27 28 29 30 31 32 34 35 35
11 11 12 13 13 14 14 14 15 15 16 17 18 19 19 20 21 21 21 21 21 22 23 23 24 24 25 25 26 26 27 27 27 28 29 29 30 31 32 34 35 35 35
12 12 12 13 14 14 15 15 16 17 17 18 19 19 19 19 20 20 21 21 21 22 22 22 23 24 25 25 26 27 27 28 29 29 31 32 33 33 33 34 35 35 36
13 13 13 14 15 15 16 16 17 17 18 19 19 19 20 20 21 21 21 21 21 22 22 23 23 23 24 25 26 28 29 30 30 30 31 32 33 33 34 35 36 36 36
14 14 14 15 16 16 17 17 18 18 19 19 20 20 21 21 21 21 21 21 22 22 23 23 24 24 24 25 27 29 30 31 31 32 32 33 34 34 35 36 36 36 37
15 15 16 16 16 17 18 18 19 19 20 21 21 21 21 21 21 21 22 22 23 23 25 26 26 26 27 27 28 29 31 32 32 33 33 34 34 35 36 36 37 37 37
16 17 17 18 18 19 19 20 21 21 21 21 21 22 21 21 22 22 22 23 24 25 26 27 27 28 28 28 29 30 31 32 33 33 34 34 34 35 37 37 37 38 38
Wind_Direction
186 182 182 192 193 193 195 187 187 181 176 165 166 160 157 158 144 141 137 118 94 75 5 342 329 311 294 276 274 278 279 281 282 280 278 274 273 276 281 285 289 286 287
187 183 182 197 201 197 196 196 191 182 173 166 169 169 167 167 168 167 152 99 355 339 322 320 314 297 288 286 282 283 281 281 283 284 280 274 272 273 277 280 285 287 289
190 200 197 202 208 198 188 188 178 173 173 174 179 188 195 202 205 219 242 278 294 295 295 304 302 297 290 285 281 280 279 278 282 283 280 275 273 274 277 279 280 283 286
226 207 221 218 205 200 197 194 198 201 194 190 200 216 222 222 230 240 252 272 288 292 292 297 294 289 290 285 277 279 280 279 285 285 282 277 275 273 276 279 280 281 284
237 213 222 221 209 210 206 204 210 215 215 213 223 238 241 235 240 251 265 277 284 288 288 290 290 287 285 285 280 280 278 279 284 284 280 277 276 274 276 279 280 282 286
234 216 223 229 224 221 214 215 219 226 226 231 238 246 248 242 250 258 266 273 280 283 284 286 287 287 284 282 280 279 277 276 278 281 279 279 278 276 276 278 282 283 284
245 233 228 233 234 227 221 222 229 233 236 240 245 250 254 257 263 264 267 271 276 279 279 280 283 284 282 281 281 278 276 275 276 280 280 279 277 275 274 277 280 281 282
254 244 236 236 236 231 225 227 234 239 242 248 251 252 255 262 267 269 269 270 272 275 275 275 277 278 280 282 280 278 277 278 278 280 280 279 277 275 275 277 278 279 281
261 254 248 239 240 237 233 234 236 241 245 249 252 254 258 262 267 271 269 268 271 275 277 278 277 276 279 279 279 279 278 277 275 277 278 278 278 278 278 279 281 281 281
259 251 253 246 240 239 237 236 239 245 247 252 256 259 262 262 264 267 271 271 272 274 277 277 279 277 277 279 279 281 277 276 275 276 278 277 276 277 278 281 281 281 281
264 259 264 255 250 249 244 242 245 250 251 253 256 263 267 265 266 269 270 271 271 272 275 277 279 278 275 278 278 280 277 277 277 277 276 275 276 277 278 279 280 280 282
270 266 267 266 261 256 250 250 252 254 256 254 257 263 267 269 271 272 272 274 275 276 276 275 276 278 277 276 277 278 279 279 279 277 276 275 276 277 277 278 279 280 281
276 276 270 270 266 262 258 258 261 264 261 261 263 265 268 274 276 276 276 278 279 279 279 279 277 277 278 277 278 278 279 280 279 277 275 275 276 277 277 276 278 279 281
276 287 276 274 273 273 270 268 270 267 267 266 267 267 270 273 274 277 280 282 282 282 282 281 279 281 280 279 280 278 279 278 278 277 277 277 276 276 276 277 277 278 280
284 289 285 277 279 279 275 273 274 274 273 270 269 270 272 274 276 277 280 283 283 282 283 283 281 279 279 279 278 277 278 277 279 278 277 277 275 275 277 278 279 280 281
287 286 284 278 277 278 277 278 281 278 276 275 273 273 275 276 278 279 281 282 282 283 282 283 283 280 277 277 277 278 277 278 279 279 277 276 275 276 276 278 280 282 282
291 290 288 285 283 281 281 283 285 285 281 279 278 278 278 277 279 280 282 284 284 285 285 285 285 283 280 280 280 279 276 278 279 279 279 279 278 277 279 280 282 282 283
294 294 292 289 287 284 284 286 288 287 285 282 282 282 281 281 282 282 283 283 284 285 285 285 285 285 282 280 280 279 276 278 279 279 279 280 280 281 282 282 283 284 284
297 297 297 295 294 289 289 288 288 289 288 287 286 285 286 287 287 286 286 285 285 284 285 286 287 284 283 281 280 280 279 279 281 281 283 282 282 283 285 285 284 284 284
296 298 297 296 295 294 293 291 290 290 291 291 290 290 291 290 289 288 288 287 286 286 287 286 286 287 285 284 282 281 282 282 281 282 285 284 285 285 285 285 285 285 285
296 295 296 295 294 294 294 293 293 291 292 293 293 293 293 293 291 290 288 288 288 288 289 288 287 288 286 284 283 284 283 283 283 284 286 286 285 286 287 287 288 287 285
294 296 297 299 300 298 295 294 293 293 294 295 295 295 295 294 294 293 292 291 292 291 290 289 287 288 287 286 285 284 285 286 284 285 285 286 286 287 289 290 289 287 287
299 298 298 299 300 301 300 299 298 297 298 298 297 297 295 293 293 293 292 291 291 291 291 293 292 292 291 289 287 286 287 287 287 287 288 288 288 288 290 291 290 289 288
305 301 299 301 301 301 301 300 300 299 297 297 297 297 297 296 294 293 292 291 291 292 293 293 294 294 293 292 292 289 290 292 291 291 292 290 290 289 290 290 291 289 288
303 303 302 302 303 302 302 301 301 301 301 299 297 298 298 297 294 294 293 292 293 292 292 293 293 293 294 293 292 291 291 292 292 291 292 292 292 289 289 290 291 291 290
305 302 301 302 302 301 301 301 300 301 301 301 300 300 299 297 295 295 294 294 293 293 294 294 294 294 294 293 293 294 294 293 292 292 292 292 292 292 292 292 292 292 292
Height
5905 5905 5905 5906 5906 5906 5907 5907 5908 5908 5908 5909 5909 5910 5910 5910 5910 5910 5910 5910 5910 5909 5909 5908 5908 5907 5907 5907 5906 5906 5905 5905 5905 5904 5904 5904 5903 5903 5903 5902 5902 5902 5901
5904 5905 5905 5906 5906 5906 5907 5907 5908 5908 5909 5909 5910 5910 5910 5910 5910 5910 5910 5910 5910 5909 5909 5908 5908 5907 5907 5906 5906 5905 5905 5904 5904 5904 5903 5903 5903 5902 5902 5902 5901 5901 5900
5904 5904 5905 5905 5905 5906 5906 5907 5908 5908 5909 5909 5910 5910 5910 5910 5910 5910 5910 5910 5910 5909 5908 5908 5907 5907 5906 5906 5905 5905 5904 5904 5903 5903 5902 5902 5901 5901 5901 5900 5900 5899 5899
5903 5904 5904 5905 5905 5905 5906 5907 5908 5908 5909 5909 5909 5909 5910 5910 5910 5910 5910 5910 5909 5909 5908 5907 5907 5906 5905 5905 5904 5904 5903 5903 5902 5902 5901 5901 5900 5900 5899 5899 5898 5898 5897
5902 5903 5903 5904 5904 5905 5906 5907 5907 5908 5908 5908 5909 5909 5909 5909 5909 5909 5909 5909 5908 5908 5907 5907 5906 5905 5904 5904 5903 5903 5902 5902 5901 5900 5900 5899 5898 5898 5898 5897 5896 5896 5895
5901 5902 5902 5903 5903 5904 5905 5906 5906 5907 5907 5908 5908 5908 5908 5909 5908 5908 5908 5907 5907 5907 5906 5906 5905 5904 5903 5902 5902 5901 5901 5900 5899 5899 5898 5897 5897 5896 5895 5895 5894 5893 5892
5900 5900 5901 5901 5902 5903 5904 5905 5905 5906 5906 5907 5907 5907 5907 5907 5907 5907 5906 5906 5905 5905 5905 5904 5903 5902 5901 5901 5900 5899 5898 5898 5897 5897 5896 5895 5894 5893 5893 5892 5891 5890 5889
5899 5899 5900 5900 5901 5902 5902 5903 5904 5904 5905 5905 5906 5906 5906 5907 5906 5905 5905 5905 5904 5903 5902 5901 5901 5900 5899 5899 5898 5897 5896 5895 5895 5894 5893 5892 5891 5890 5890 5889 5888 5887 5886
5898 5898 5898 5899 5899 5900 5900 5901 5902 5903 5903 5903 5904 5904 5904 5904 5904 5904 5903 5902 5902 5901 5900 5899 5898 5897 5897 5896 5895 5894 5893 5893 5892 5891 5890 5889 5888 5887 5886 5885 5884 5883 5882
5897 5897 5897 5897 5898 5898 5898 5899 5899 5900 5900 5901 5901 5902 5902 5901 5901 5901 5901 5900 5899 5899 5898 5896 5895 5894 5893 5892 5892 5891 5890 5889 5888 5887 5887 5886 5885 5884 5883 5882 5881 5879 5878
5896 5896 5896 5896 5896 5896 5896 5896 5897 5897 5898 5898 5898 5898 5898 5898 5898 5898 5897 5897 5896 5895 5894 5893 5892 5891 5890 5889 5887 5887 5886 5885 5884 5883 5882 5881 5880 5879 5878 5877 5876 5875 5874
5894 5894 5894 5894 5894 5894 5894 5894 5894 5894 5894 5895 5895 5895 5895 5895 5895 5894 5894 5893 5893 5892 5890 5890 5888 5887 5886 5885 5883 5882 5881 5880 5879 5879 5878 5877 5876 5874 5873 5872 5871 5870 5869
5892 5892 5892 5892 5892 5891 5891 5891 5891 5891 5891 5891 5892 5892 5891 5891 5891 5890 5890 5889 5888 5887 5886 5885 5884 5883 5881 5880 5879 5877 5876 5875 5875 5873 5872 5871 5870 5869 5868 5867 5865 5864 5863
5891 5890 5890 5890 5889 5889 5889 5889 5888 5888 5888 5888 5888 5888 5887 5887 5887 5886 5886 5884 5883 5883 5881 5880 5879 5878 5876 5875 5874 5872 5871 5870 5869 5868 5867 5865 5864 5863 5862 5861 5859 5858 5856
5889 5888 5887 5887 5887 5887 5886 5886 5885 5885 5884 5884 5884 5884 5883 5883 5882 5882 5881 5880 5879 5878 5876 5875 5873 5872 5871 5869 5868 5867 5865 5864 5863 5862 5860 5859 5858 5857 5855 5854 5853 5851 5850
5887 5886 5885 5885 5884 5884 5884 5883 5882 5882 5881 5881 5880 5880 5879 5878 5878 5877 5876 5874 5873 5872 5871 5869 5867 5866 5864 5863 5862 5860 5859 5858 5857 5855 5854 5852 5851 5850 5848 5847 5845 5844 5842
5885 5884 5883 5882 5882 5881 5880 5880 5879 5878 5877 5877 5876 5875 5874 5873 5873 5871 5870 5869 5867 5866 5864 5863 5861 5860 5858 5857 5855 5854 5852 5851 5850 5849 5847 5846 5844 5843 5841 5839 5838 5836 5834
5882 5881 5880 5879 5879 5878 5877 5876 5875 5874 5873 5873 5872 5871 5870 5868 5867 5866 5864 5863 5861 5860 5858 5856 5855 5853 5852 5850 5849 5847 5845 5844 5843 5842 5840 5839 5837 5835 5834 5832 5830 5827 5825
5879 5878 5877 5876 5875 5875 5874 5873 5872 5871 5869 5868 5867 5866 5865 5863 5862 5860 5858 5857 5855 5853 5852 5850 5848 5846 5845 5843 5841 5840 5839 5838 5836 5835 5833 5831 5829 5827 5826 5823 5821 5819 5816
5876 5875 5874 5873 5872 5871 5870 5869 5868 5867 5865 5864 5863 5861 5859 5858 5856 5854 5853 5851 5849 5847 5845 5843 5842 5840 5838 5836 5834 5833 5832 5830 5829 5827 5825 5823 5822 5819 5817 5815 5812 5810 5807
5873 5871 5870 5869 5868 5867 5866 5865 5864 5863 5861 5859 5858 5856 5854 5853 5851 5849 5847 5845 5843 5841 5839 5837 5835 5833 5831 5829 5828 5826 5825 5823 5821 5819 5817 5816 5813 5811 5808 5806 5803 5800 5797
5869 5868 5867 5866 5864 5863 5862 5861 5859 5858 5856 5854 5853 5851 5849 5847 5845 5843 5841 5839 5837 5835 5833 5831 5829 5827 5825 5824 5822 5819 5818 5816 5814 5812 5809 5807 5804 5802 5799 5796 5793 5790 5787
5865 5864 5863 5862 5860 5859 5858 5856 5854 5853 5851 5849 5847 5845 5843 5841 5839 5837 5835 5833 5831 5829 5827 5825 5823 5821 5819 5817 5815 5812 5810 5808 5806 5804 5801 5798 5795 5792 5790 5786 5783 5780 5777
5861 5860 5859 5858 5856 5855 5853 5851 5849 5847 5846 5843 5842 5840 5838 5835 5833 5831 5829 5827 5825 5823 5821 5819 5817 5815 5812 5810 5808 5805 5803 5800 5797 5795 5792 5789 5786 5782 5779 5776 5773 5769 5766
5857 5856 5855 5853 5852 5850 5849 5846 5844 5842 5840 5837 5835 5833 5831 5829 5827 5825 5823 5821 5819 5817 5815 5812 5810 5808 5805 5803 5800 5797 5794 5791 5788 5786 5783 5780 5776 5773 5770 5766 5763 5759 5756
5853 5851 5850 5848 5847 5845 5843 5841 5839 5837 5835 5832 5830 5828 5826 5823 5821 5819 5817 5815 5813 5810 5808 5805 5803 5800 5797 5795 5792 5789 5786 5783 5779 5777 5773 5770 5767 5764 5760 5757 5753 5750 5746